{"data":{"norad_id":58749,"epoch":"2026-05-25T00:27:19.705248Z","epoch_age_seconds":69824,"freshness":"FRESH","line1":"1 58749U 24005X   26145.01897807 -.00001956  00000+0 -61579-4 0  9996","line2":"2 58749  43.0028 148.9308 0001707 274.2731  85.7926 15.27577880132111","mean_motion":15.2757788,"eccentricity":0.0001707,"inclination_deg":43.0028,"raan_deg":148.9308,"arg_perigee_deg":274.2731,"mean_anomaly_deg":85.7926,"bstar":-6.1579e-5,"rev_number":13211,"period_min":94.266879538737,"perigee_km":481.88423853946,"apogee_km":484.22664963987,"semimajor_km":6861.1924440897,"source":"CELESTRAK","updated_at":"2026-05-25T13:38:18.741993Z"}}